Regional Weather Roundup
Issued by NWS Green Bay, WI

Home | Current Version | Previous Version | Text Only | Print | Product List | Glossary On
Versions: 1 2 3 4 5 6 7 8 9 10 11 12 13 14 15 16 17 18 19 20 21 22 23 24 25 26 27 28 29 30 31 32 33 34 35 36 37 38 39 40 41 42 43 44 45 46 47 48 49 50
000
ASUS43 KGRB 221611
RWRGRB

NORTH-CENTRAL AND NORTHEAST WISCONSIN REGIONAL WEATHER ROUNDUP
NATIONAL WEATHER SERVICE GREEN BAY WI
1100 AM CDT TUE AUG 22 2017

WIZ005-009-010>012-018-019-221700-
NORTH CENTRAL WISCONSIN

CITY           SKY/WX    TMP DP  RH WIND       PRES   REMARKS
IRONWOOD       PTSUNNY   62  53  72 W15G21    29.90R
MANITOWISH WTR PTSUNNY   61  52  71 NW13G21   29.91R
ARBOR VITAE    MOSUNNY   63  52  67 NW16      29.90R
EAGLE RIVER    PTSUNNY   60  49  67 NW13G18   29.88R
LAND O LAKES   MOSUNNY   61  51  70 NW9G22    29.89R
RHINELANDER    PTSUNNY   64  52  64 W10G23    29.90R
PHILLIPS       MOSUNNY   62  51  67 NW10G18   29.93R
ANTIGO         PTSUNNY   62  51  67 NW13G23   29.90R
TOMAHAWK         N/A     62  51  66 W13G18    29.92R
MERRILL        PTSUNNY   64  52  63 NW13G21   29.92R
$$

WIZ013-073-221700-
NORTHEAST WISCONSIN

CITY           SKY/WX    TMP DP  RH WIND       PRES   REMARKS
IRON MOUNTAIN  PTSUNNY   65  51  60 NW14      29.81S
MARINETTE      MOSUNNY   68  53  58 N15       29.82R
OCONTO         PTSUNNY   69  53  57 NW12      29.83R
$$

WIZ017-030-035>037-045-221700-
CENTRAL WISCONSIN

CITY           SKY/WX    TMP DP  RH WIND       PRES   REMARKS
MEDFORD        MOSUNNY   64  50  61 NW17      29.94S
WAUSAU         MOSUNNY   67  51  56 NW15G24   29.90R
MOSINEE        MOSUNNY   66  54  63 NW15G22   29.93R
MARSHFIELD     MOSUNNY   66  50  56 NW21G26   29.94R
WISC RAPIDS    MOSUNNY   70  54  56 NW16G25   29.94R
STEVENS POINT  MOSUNNY   66  51  58 NW12G21   29.92R
WAUPACA        MOSUNNY   71  53  53 NW16      29.90R
SHAWANO        MOSUNNY   70  54  56 NW13G18   29.87R
CLINTONVILLE   MOSUNNY   68  50  52 NW20G30   29.88R
WAUTOMA        PTSUNNY   68  54  60 NW15G22   29.91R
$$

WIZ038-039-048-051-221700-
FOX VALLEY

CITY           SKY/WX    TMP DP  RH WIND       PRES   REMARKS
NWS GREEN BAY  MOSUNNY   70  57  63 NW18G26   29.85R
APPLETON       PTSUNNY   70  48  46 NW21G26   29.86R
OSHKOSH        MOSUNNY   70  56  61 NW17G24   29.87R
FOND DU LAC    MOSUNNY   71  54  54 NW16G26   29.88R
$$

WIZ022-050-052-221700-
EAST CENTRAL WISCONSIN

CITY           SKY/WX    TMP DP  RH WIND       PRES   REMARKS
EPHRAIM        FAIR      66  55  65 NW13G21   29.80R
WASHINGTON ISL PTSUNNY   66  54  65 NW13G21   29.79R
STURGEON BAY   NOT AVBL
MANITOWOC      SUNNY     70  56  61 NW21      29.83R
SHEBOYGAN      MOSUNNY   72  62  71 N16G25    29.84R
$$

LMZ563-521-522-541>543-221700-
LAKESHORE

STATION/POSITION TIME  TEMP    WIND        PRES    VSBY  WAVE
                       AIR SEA DIR/SP/G                  HT/PER
                 (UTC) (F)     (DEG/KT/KT) (MB)    (MI)  (FT/S)
SHEBOYGAN LKSHOR 1600   70     310/ 18/ 22 1009.7R
KEWAUNEE LKSHORE 1542   68     320/ 10/ 17 1008.9R
NORTHPORT PIER   1540   67     310/ 16/ 23 1008.8R
N MID LAKE BUOY  1550   64 67  300/ 19/ 23 1008.1R         4/ 4
S GREEN BAY BUOY 1600   68 71  300/ 16/ 19 1010.0
SISTER BAY LKSHO 1603   69     320/ 21/ 24   N/A
MENOMINEE LKSHOR 1542   67     300/ 10/ 19 1009.3R
$$




USA.gov is the U.S. government's official web portal to all federal, state and local government web resources and services.